, AK

(GMT )
Deadhorse

Weather History for PASC - June, 2013

Change the Weather History Date:

Wednesday, June 12, 2013

  Actual Average Record
Temperature  
Mean Temperature 50 °F -  
Max Temperature 61 °F 42 °F 64 °F (2016)
Min Temperature 41 °F 30 °F 26 °F (1990)
Degree Days  
Heating Degree Days 14    
Moisture  
Dew Point 43 °F    
Average Humidity 73    
Maximum Humidity 93    
Minimum Humidity 51    
Precipitation  
Precipitation 0.00 in - - ()
Sea Level Pressure  
Sea Level Pressure 30.17 in    
Wind  
Wind Speed 6 mph (East)    
Max Wind Speed 13 mph    
Max Gust Speed -    
Visibility 10 miles    
Events      
Averages and records for this station are not official NWS values.
T = Trace of Precipitation, MM = Missing Value Source: NWS Daily Summary

Daily Weather History Graph

Daily Weather History Graph

Search for Another Location

Airport or City:

Trip Planner

Search our weather history database for the weather conditions in past years. The results will help you decide how hot, cold, wet, or windy it might be!

Date:

Astronomy

Dec. 31, 1969 Rise Set
Actual Time Sun does not rise Sun does not rise
Civil Twilight Sun does not rise Sun does not rise
Nautical Twilight Sun does not rise Sun does not rise
Astronomical Twilight Sun does not rise Sun does not rise
Moon 8:02 AM AKDT (6/12) 1:49 AM AKDT (6/12)
Length of Visible Light 24h 00m
Length of Day
24h 00m
Waxing Crescent, 15% of the Moon is Illuminated
Jun 12
Waxing Crescent
Jun 16
First Quarter
Jun 23
Full
Jun 29
Last Quarter
Jul 7
New

Hourly Weather History & Observations

Time (AKDT) Temp. Windchill Dew Point Humidity Pressure Visibility Wind Dir Wind Speed Gust Speed Precip Events Conditions
12:53 AM 45.0 °F 41.2 °F 42.1 °F 90% 30.19 in 10.0 mi SSE 6.9 mph - N/A   Clear
1:53 AM 43.0 °F 38.8 °F 41.0 °F 93% 30.19 in 10.0 mi South 6.9 mph - N/A   Clear
2:53 AM 41.0 °F 35.8 °F 39.0 °F 93% 30.19 in 10.0 mi SSW 8.1 mph - N/A   Clear
3:53 AM 42.1 °F 39.2 °F 39.0 °F 89% 30.19 in 10.0 mi WSW 4.6 mph - N/A   Clear
4:53 AM 43.0 °F - 41.0 °F 93% 30.19 in 10.0 mi Calm Calm - N/A   Clear
5:53 AM 45.0 °F 42.6 °F 42.1 °F 90% 30.19 in 10.0 mi West 4.6 mph - N/A   Clear
6:53 AM 48.0 °F - 43.0 °F 83% 30.19 in 10.0 mi West 4.6 mph - N/A   Clear
7:53 AM 50.0 °F - 44.1 °F 80% 30.20 in 10.0 mi NW 4.6 mph - N/A   Clear
8:53 AM 52.0 °F - 44.1 °F 74% 30.20 in 10.0 mi Calm Calm - N/A   Clear
9:53 AM 53.1 °F - 43.0 °F 69% 30.19 in 10.0 mi Calm Calm - N/A   Scattered Clouds
10:53 AM 55.9 °F - 44.1 °F 64% 30.19 in 10.0 mi Calm Calm - N/A   Mostly Cloudy
11:53 AM 57.0 °F - 43.0 °F 59% 30.18 in 10.0 mi WSW 3.5 mph - N/A   Mostly Cloudy
12:53 PM 60.1 °F - 42.1 °F 51% 30.18 in 10.0 mi Calm Calm - N/A   Mostly Cloudy
1:53 PM 55.9 °F - 45.0 °F 67% 30.19 in 10.0 mi NE 10.4 mph - N/A   Mostly Cloudy
2:53 PM 54.0 °F - 44.1 °F 69% 30.18 in 10.0 mi ENE 10.4 mph - N/A   Scattered Clouds
3:53 PM 55.0 °F - 44.1 °F 67% 30.17 in 10.0 mi ENE 10.4 mph - N/A   Scattered Clouds
4:53 PM 55.0 °F - 43.0 °F 64% 30.16 in 10.0 mi ENE 11.5 mph - N/A   Clear
5:53 PM 55.9 °F - 41.0 °F 57% 30.15 in 10.0 mi East 10.4 mph - N/A   Clear
6:53 PM 55.9 °F - 43.0 °F 62% 30.15 in 10.0 mi East 11.5 mph - N/A   Clear
7:53 PM 57.0 °F - 43.0 °F 59% 30.14 in 10.0 mi East 10.4 mph - N/A   Clear
8:53 PM 57.0 °F - 43.0 °F 59% 30.12 in 10.0 mi East 10.4 mph - N/A   Clear
9:53 PM 55.9 °F - 46.0 °F 69% 30.12 in 10.0 mi East 9.2 mph - N/A   Clear
10:53 PM 52.0 °F - 46.0 °F 80% 30.11 in 10.0 mi ENE 10.4 mph - N/A   Clear
11:53 PM 48.0 °F - 43.0 °F 83% 30.11 in 10.0 mi ENE 12.7 mph - N/A   Clear